Погода Жигалово

Погода Жигалово : погода сейчас, прогноз погоды и архив. Всё, что Вы хотите узнать о погоде Жигалово!

Хотите узнать прогноз погоды Жигалово? Тогда Вам сюда: Погода Жигалово

Поиск расширенной информации на нашем сайте:

Другие новости

Новости СМИ2

Главная страница сайта

Новости сайта

03.07.2017

Напоминаем, что на нашем специализированном сайте Метеоцентр.Азия вы можете получить высокодетализированные автоматические прогнозы погоды по пунктам России, СНГ и мира в авиационном формате (включающие направление и скорость ветра, видимость, явления погоды, количество и форму облачности, нижнюю и верхнюю границу облачности).


Погода Жигалово - сегодня

Время (UTC), дата Ветер
(°,м/с) 
Видим.   Явления Облачность Т
(°С)
Тd
(°С)
f(%) Тe
(°С)
Pmin
(гПа)
dP
(гПа)
Po
(мм)
O2
(г/м3)
Тmin Tmax R s Состояние
почвы
06 20.07.18 150 (ЮВ) 10 км    10/10 1000 м кучево-дожд. 
[Cb cap]
+27.8 +13.1 40 +35  994.9  -1.3  712  258           
09 20.07.18 010 (С) 10 км  в посл. час ливневой дождь  10/10 1000 м кучево-дожд. 
[Cb cap]
+22.1 +17.6 76 +37  996.1  0.4  712  261           
12 20.07.18 140 (ЮВ) 10 км  в посл. час ливневой дождь  10/10 600 м кучево-дожд. 
[Cb cap]
+20.1 +17.9 87 +36  996.3  -0.1  712  263    +28.5  0.6     
15 20.07.18 240 (ЮЗ) н/о  в посл. час ливневой дождь  9/9 600 м кучево-дожд. 
[Cb cap]
+19.3 +17.4 89 +35  996  -0.4  712  264           
18 20.07.18 250 (З) н/о  {ливн. осадки}  10/10 600 м кучево-дожд. 
[Cb cap]
+18 +16.1 89 +31  996.1  -0.2  712  265           
21 20.07.18 240 (ЮЗ) 10 км    10/10 600 м кучево-дожд. 
[Cb cap]
+17.5 +15.2 86 +28  996  -0.1  712  266           
00 21.07.18 270 (З) 10 км  дым  10/10 600 м кучево-дожд. 
[Cb cap]
+16 +12 77 +21  997.9  1.4  713  269  +15.8    0.0    сухая 
06 21.07.18 280 (З) 10 км  дым  10/10 600 м кучево-дожд. 
[Cb cap]
+17 +13.4 79 +24  1001.1  2.2  715  268           
09 21.07.18 300 (СЗ) 10 км  дым  10/10 600 м кучево-дожд. 
[Cb cap]
+16.8 +12.1 74 +22  1004.3  717  270           
12 21.07.18 300 (СЗ) 10 км  дым  10/10 600 м кучево-дожд. 
[Cb cap]
+15.3 +11 76 +18  1007.4  2.7  719  272    +17.8       
15 21.07.18 280 (З) н/о    10/10 600 м кучево-дожд. 
[Cb cap]
+13.6 +9.1 74 +14  1009.1  1.3  720  275           
18 21.07.18 270 (З) н/о    10/10 600 м кучево-дожд. 
[Cb cap]
+12.3 +8.4 77 +13  1010.5  1.1  721  276           
21 21.07.18 210 (ЮЗ) 10 км  дым  10/6 600 м кучево-дожд., средняя 
[Cb cap|Ac und]
+10.2 +7.1 81 +10  1011.4  0.6  722  279           
00 22.07.18 220 (ЮЗ) 10 км  дым  10/5 600 м кучево-дожд., средняя 
[Cb cap|Ac und]
+11.4 +6.8 73 +12  1012  0.7  722  278  +10.2        сухая 
03 22.07.18 тихо ()   10 км  дым  10/10 600 м кучево-дожд. 
[Cb cap]
+13.4 +7.8 69 +13  1011.8  0.2  722  276           
06 22.07.18 040 (СВ) 20000 м  дым  3/3 600 м верхняя 
[Cu med, cong|Ci fib]
+18.4 +8.1 51 +19  1010.2  -0.7  722  271           
09 22.07.18 тихо ()   20000 м  дым  4/0 верхняя 
[Ci fib]
+21.7 +6.7 38 +22  1008.4  -1.2  721  268           
12 22.07.18 340 (С) 20000 м  дым  3/0 верхняя 
[Ci fib]
+20 +8.1 46 +20  1008.2  -0.4  720  269    +22       
15 22.07.18 130 (ЮВ) н/о    ясно 
+12.1 +8.9 81 +14  1010.3  0.6  721  277           
18 22.07.18 тихо ()   н/о    ясно 
+8.7 +7.2 90 +9  1011  0.1  721  280           
21 22.07.18 050 (СВ) 0500 м  туман  ?/?  
+9 +8 93 +10  1010.7  -0.2  721  280           
00 23.07.18 070 (В) 10 км  в посл. час туман  10/10 300 м 
[St]
+10.9 +8.5 85 +11  1010.5  0.2  721  278  +6.9        сухая 
03 23.07.18 330 (СЗ) 10 км  дым  8/0 средняя 
[Ac trans]
+17.9 +9.6 58 +20  1007.7  -1.6  720  270           
06 23.07.18 320 (СЗ) 10 км  дым  6/0 средняя 
[Ac trans]
+23.5 +10.7 44 +26  1005.1  -1.5  719  265           
09 23.07.18 280 (З) 10 км  дым  8/5 600 м кучево-дожд., средняя 
[Cb cap|Ac trans]
+22.1 +10.4 47 +25  1004.6  -0.7  718  266           
Время (UTC), дата Ветер
(°,м/с) 
Видим.   Явления Облачность Т
(°С)
Тd
(°С)
f(%) Тe
(°С)
Pmin
(гПа)
dP
(гПа)
Po
(мм)
O2
(г/м3)
Тmin Tmax R s Состояние
почвы

Для получения пояснительной информации подведите курсор к названию столбца.

ПОГОДА Жигалово - архив

Всё, что Вы хотите узнать о погоде Жигалово - удобно и подробно!

Выберите нужную дату (начиная с 1 января 2015* года) и нажмите кнопку "Найти".
Будут отображены архивные сводки погоды по пункту Жигалово, начиная с указанной даты.


Отображать данные в формате CSV (для использования в таблицах Excel)


Внимание! Наш архив погоды предназначен исключительно для личного некоммерческого использования в познавательных целях. Если Вам необходимы официальные справки о состоянии погоды (для производственных, юридических, коммерческих и т.п. целей), обращайтесь в органы Росгидромета.

*Примечание: данная дата относится к архиву по метеостанциям СССР (Россия, СНГ, Балтия).
Архив по метеостанциям Зарубежной Европы и Азии (кроме Китая) хранится 10 дней, по другим регионам земного шара (Китай, Африка, Америка, Австралия, Океания) - 1 день.

Жигалово - район местоположения метеостанции


Название, широта, долгота, высота метеостанции:
Жигалово 54.8°ш. 105.2°д. 426 м над ур. моря [Российская Федерация]

Дополнительная информация

В oтличие oт бoльшинства пoгoдных сайтoв мы публикуем пoдрoбную метеoинфoрмацию в детальнoм прoфессиoнальнoм фoрмате.

Характеристики температуры и влажнoсти вoздуха измеряются на высoте 2 м в тени вдали oт зданий и деревьев.
Скoрoсть ветра измеряется на высoте 10 м (на урoвне рoста челoвека скoрoсть ветра ниже в 1.5-2 раза). Если метеoстанция нахoдится в гoрoде или в лесу, тo скoрoсть ветра занижена на 2-4 м/с пo сравнению с oткрытым местoм. Скoрoсть ветра над акватoриями крупных рек и oзёр, а также на вершинах хoлмoв на 2-5 м/с выше, чем в oбычных услoвиях.
Атмoсфернoе давление в разных тoчках местнoсти мoжет значительнo oтличаться oт давления на метеoстанции, в зависимoсти oт услoвий рельефа (при пoдъёме на 10 м давление пoнижается примернo на 1 мм рт.ст.).